Theta_e
346 348 350 352 353 353 352 352 351 351 350 350 351 351 350 350 350 350 349 349 347 346 347 345 345 344 344 345 344 345 346 347 348 348 347 349 349 346 346 346 346 346 345 345 345 345 344 344 344 344 345 345 345 346 346 347 348 349 349 350 350 350 350 350 350 350 350 350 350 350 350 350 350 350 350 350 350 350 350 350 350 349 349 349 348
349 351 353 354 353 353 353 352 352 352 352 350 351 352 351 351 351 350 351 350 348 347 347 345 344 344 344 344 343 344 346 347 347 347 348 349 350 348 347 346 346 346 345 345 345 345 344 344 345 345 345 346 346 347 347 348 349 350 350 350 350 350 350 350 350 350 351 350 350 350 350 350 350 350 350 350 350 350 350 350 350 350 350 350 350
352 353 354 354 353 353 353 353 353 353 353 351 351 352 352 351 352 352 352 351 348 347 347 345 344 344 343 344 344 344 345 346 346 346 347 349 350 351 349 348 347 347 347 346 346 345 345 344 345 345 346 347 347 348 348 349 349 350 350 350 350 350 350 350 350 351 351 351 350 350 350 350 349 349 349 349 349 349 349 350 349 350 349 350 351
355 355 354 354 353 353 353 354 354 353 353 352 352 353 352 352 352 353 353 351 348 346 347 345 344 344 343 343 343 344 345 345 345 345 346 348 350 350 350 349 348 347 347 347 346 345 345 345 346 346 347 348 348 349 349 350 350 351 351 351 351 351 351 351 351 351 351 350 349 347 346 346 346 346 346 346 347 347 347 348 348 349 349 350 351
355 355 354 354 354 354 354 354 354 353 353 353 353 353 352 352 351 351 351 349 346 346 346 344 344 344 343 343 343 344 344 344 344 345 345 346 348 349 349 350 350 348 347 346 346 345 345 345 346 347 348 349 350 351 351 351 351 351 351 351 351 350 351 351 352 351 350 349 347 343 341 339 339 340 339 340 341 341 341 342 342 344 345 347 350
356 356 355 353 354 355 355 355 355 354 353 353 353 352 353 352 352 351 349 348 346 346 345 344 344 344 343 343 343 344 344 344 343 344 344 344 346 348 348 349 350 351 349 347 345 344 344 345 346 347 349 350 351 351 351 351 351 350 350 350 350 350 350 351 351 350 349 350 348 347 344 342 341 339 338 337 337 337 337 339 340 340 340 340 347
356 357 356 354 354 355 355 355 355 354 353 354 353 353 353 353 353 351 348 347 346 346 346 344 344 344 344 343 343 344 344 343 342 344 344 343 344 347 348 348 349 349 350 349 348 346 343 344 346 346 348 348 349 349 349 350 350 349 349 349 349 348 347 349 350 350 349 349 349 349 349 348 348 346 344 340 337 337 337 340 342 341 339 338 344
356 357 356 354 354 355 355 356 355 355 354 354 354 353 353 354 355 353 350 349 346 345 345 345 344 343 344 342 342 344 343 343 343 343 343 343 344 346 346 348 348 348 349 348 348 348 344 344 345 345 346 347 347 348 348 349 348 348 348 348 348 347 345 346 348 348 348 348 348 348 348 349 349 349 350 345 339 337 337 343 345 343 341 339 343
356 356 356 355 355 355 355 356 356 355 354 354 354 354 353 353 355 354 352 351 347 345 344 344 344 343 343 341 340 342 344 343 342 343 343 344 343 341 344 346 346 347 348 346 346 347 347 345 345 345 346 345 346 347 347 347 348 347 348 348 348 347 346 346 347 348 347 348 347 348 347 348 348 348 350 347 340 337 337 344 347 345 342 341 345
356 356 356 355 355 356 356 357 356 355 355 354 354 354 354 355 354 354 355 352 347 346 345 344 343 343 343 341 340 343 345 342 341 343 343 344 341 340 343 344 346 345 342 343 344 346 347 346 346 346 346 346 345 346 347 347 348 348 348 349 348 347 347 347 347 348 347 347 347 347 346 346 347 347 349 348 341 337 338 344 347 345 343 344 347
356 356 357 356 356 356 357 358 356 356 356 355 355 355 356 356 353 354 356 353 349 347 346 345 344 344 344 343 342 343 345 344 343 344 344 343 342 342 344 343 344 344 342 343 343 344 347 345 346 347 348 347 345 344 345 346 346 347 348 348 347 347 347 347 347 347 346 346 345 345 343 344 345 345 348 348 343 339 338 344 348 345 344 346 348
357 357 357 356 356 356 357 358 357 357 357 357 356 356 357 357 354 355 355 352 350 347 346 346 345 344 345 344 344 344 345 345 345 345 344 343 340 341 344 342 343 344 343 344 341 343 346 345 346 348 348 348 347 345 345 344 344 345 346 347 347 347 347 347 347 346 345 345 345 343 341 341 342 344 347 347 344 340 339 344 347 345 345 348 349
358 358 357 356 357 357 358 358 358 357 357 358 358 358 358 357 356 355 352 350 349 347 345 346 345 346 346 345 345 344 343 345 345 344 344 344 342 342 344 344 344 344 344 344 342 344 346 346 347 347 347 349 349 349 349 348 348 346 346 347 348 347 347 347 346 345 345 345 344 342 341 341 341 343 346 346 344 341 340 344 346 345 347 350 350
359 359 358 357 356 357 358 358 359 358 357 358 358 359 358 356 355 353 351 350 348 347 347 348 347 346 347 347 346 344 342 343 344 344 343 344 343 342 342 343 344 344 344 344 345 345 346 345 346 347 348 349 349 350 351 352 352 349 347 348 348 348 347 347 346 345 345 345 343 342 343 342 342 342 343 346 345 343 341 343 347 346 347 350 349
358 359 358 358 357 357 358 358 359 358 357 358 358 358 358 357 355 352 351 350 348 348 348 349 347 346 348 349 347 345 345 345 344 343 343 344 344 343 341 342 345 343 342 344 345 346 346 345 347 347 347 348 350 351 351 352 351 349 348 349 349 348 348 347 345 345 345 345 344 344 345 343 344 343 344 345 345 344 342 343 347 345 347 350 348
358 358 357 358 358 358 358 359 359 357 357 358 358 357 357 357 356 355 352 351 349 349 349 348 348 348 349 349 347 347 348 347 346 344 344 344 344 343 341 341 344 344 341 343 346 346 346 345 347 348 348 350 353 352 352 352 351 351 351 349 348 349 348 346 345 346 345 346 345 346 346 345 346 347 346 345 344 345 342 343 346 345 348 349 347
358 358 358 358 358 358 358 359 358 357 357 358 358 357 356 356 357 357 354 352 350 350 350 350 349 350 350 350 349 350 349 347 347 346 343 344 344 344 344 342 345 346 343 345 347 347 346 345 346 349 350 350 350 350 352 353 353 356 356 351 348 348 347 346 345 346 345 346 346 346 346 346 346 347 348 346 344 345 342 342 346 346 348 348 348
357 358 358 358 359 359 359 359 358 357 358 359 358 356 356 356 357 357 356 355 354 352 351 350 351 352 351 350 350 350 350 349 350 349 346 345 345 345 345 345 346 346 346 347 347 348 348 347 346 349 351 349 349 350 352 353 353 355 355 350 348 347 346 346 345 345 345 345 345 345 346 347 347 347 349 347 345 345 342 342 345 346 347 347 348
357 358 359 359 359 359 359 359 358 358 358 358 358 356 356 357 358 357 357 358 357 354 352 350 351 352 350 350 350 350 350 350 350 351 350 350 349 347 345 346 346 346 347 347 348 349 350 350 348 349 352 351 352 351 351 354 354 354 353 348 347 348 346 345 345 345 345 345 345 346 346 348 348 348 350 350 348 348 344 343 345 346 347 347 348
357 359 359 359 359 360 360 360 359 358 358 358 358 357 357 358 359 359 359 359 358 357 355 352 351 353 351 350 351 350 350 350 350 350 350 351 349 347 346 346 347 347 347 348 349 349 350 351 350 350 353 354 356 354 353 356 357 358 356 348 347 348 346 346 345 345 345 345 346 347 348 348 349 349 350 351 351 350 346 343 344 347 347 347 347
357 357 358 358 359 361 361 360 360 358 357 358 358 358 358 358 358 359 359 359 358 358 358 356 352 353 354 353 353 351 351 350 350 350 350 349 348 347 347 348 348 348 349 348 349 350 350 350 351 352 354 355 356 355 356 357 356 358 356 349 347 348 346 346 345 345 346 346 346 347 348 349 349 349 350 352 351 352 349 344 344 346 347 347 347
356 356 358 358 358 360 361 360 359 358 358 358 358 358 358 358 358 359 359 359 358 358 358 357 355 354 354 354 354 352 352 351 350 351 350 350 350 347 348 349 348 349 350 350 350 350 351 351 351 353 354 354 356 355 356 358 355 354 351 348 348 348 347 347 347 346 346 345 345 346 347 349 350 350 350 351 351 351 351 346 344 346 347 347 347
356 356 357 356 358 360 360 359 359 359 358 358 357 357 357 357 358 359 360 359 358 358 357 356 356 356 354 354 353 352 352 351 351 352 350 350 350 348 347 349 349 350 351 351 351 352 352 352 352 354 355 355 356 356 356 358 356 351 350 349 348 347 347 346 345 345 344 343 344 345 347 348 349 349 350 350 351 353 353 348 344 346 347 347 347
356 357 356 355 358 360 360 359 359 359 359 360 359 358 357 357 357 359 360 359 359 358 357 355 355 356 355 354 353 351 351 350 351 351 351 351 350 349 349 350 350 350 351 352 352 352 352 353 353 354 355 355 356 355 355 358 355 350 352 353 348 346 346 345 345 344 343 344 344 345 347 348 348 349 350 351 353 354 354 350 345 345 347 346 347
357 356 354 355 358 360 361 361 361 360 360 361 360 360 359 358 358 358 358 359 359 359 358 356 355 355 354 353 352 352 352 352 351 350 350 351 352 352 351 352 351 351 352 353 353 352 351 352 353 354 355 355 355 355 354 355 354 349 352 356 352 347 346 345 344 344 343 344 346 348 348 349 350 351 352 354 355 355 355 352 347 345 347 346 346
356 355 355 355 357 359 361 361 361 361 360 360 360 361 361 359 359 360 358 359 360 359 359 356 355 355 354 354 353 352 352 352 351 351 351 351 351 352 353 353 352 350 351 354 353 352 351 351 351 353 356 356 355 355 353 353 354 349 349 353 354 351 347 345 344 344 345 347 349 350 351 351 352 353 353 354 355 355 355 354 348 345 347 346 345
356 356 356 357 358 360 361 361 362 362 360 360 359 360 363 361 360 361 359 359 360 360 360 357 355 356 356 356 355 353 352 353 352 351 351 351 351 352 354 355 355 354 352 352 352 351 351 350 350 353 356 356 356 354 351 352 353 350 350 352 353 354 350 345 345 345 348 350 351 352 352 354 354 354 354 354 354 354 355 355 350 346 347 345 345
357 358 357 358 359 360 360 359 362 362 361 360 359 360 363 362 361 363 359 357 359 360 360 358 357 356 356 357 357 355 354 354 353 351 351 353 353 353 355 356 359 359 356 354 353 353 351 350 352 355 357 357 357 354 351 353 352 348 352 353 352 354 351 346 347 349 351 352 353 354 354 355 354 353 353 353 353 354 354 355 351 347 347 345 344
357 357 357 358 359 359 359 358 360 361 360 360 359 361 364 361 361 364 361 358 359 360 359 358 357 357 355 356 357 356 356 355 355 353 354 356 355 355 356 357 359 359 358 357 357 355 352 350 352 355 358 358 356 353 351 354 350 346 350 353 351 352 350 349 352 352 353 354 353 354 354 354 354 354 353 352 352 352 353 354 351 348 348 346 343
356 356 357 358 359 360 360 359 360 361 361 360 359 362 363 360 361 362 361 359 360 359 358 358 357 356 355 355 356 356 356 356 355 354 355 358 357 356 356 356 358 359 360 360 359 356 354 352 352 353 357 358 354 350 348 352 351 347 349 352 351 351 352 355 356 354 354 354 353 353 353 352 353 353 353 352 352 351 352 353 351 349 348 346 344
357 357 357 357 358 359 360 359 359 359 360 359 359 362 362 359 359 359 358 360 360 359 359 358 356 356 356 356 356 357 356 356 356 355 355 357 357 356 357 357 358 359 361 362 361 358 355 354 352 352 355 356 354 350 347 348 350 349 352 355 353 353 356 358 357 354 354 353 352 353 352 352 353 352 352 352 351 351 351 352 350 350 349 347 344
357 357 357 356 356 358 358 357 357 357 358 357 357 360 361 360 359 357 358 361 361 360 360 358 357 356 358 359 358 358 358 357 356 356 356 357 357 357 357 358 359 359 361 363 362 360 357 355 354 353 353 354 354 353 349 346 347 350 353 356 355 353 355 356 356 355 352 352 352 351 351 352 352 352 352 352 352 351 351 352 350 350 350 348 345
357 357 357 357 357 357 356 356 356 357 359 360 358 358 361 362 361 358 359 362 362 359 359 359 359 357 358 361 360 359 359 358 357 356 355 356 356 357 357 357 358 357 359 362 362 361 360 357 355 354 354 354 354 354 351 347 347 350 352 353 352 351 352 354 356 355 352 351 351 350 349 350 350 351 352 351 352 351 350 351 350 350 351 349 347
357 357 357 357 357 357 357 357 358 358 360 361 359 358 359 360 361 359 358 361 362 360 359 360 360 358 358 361 360 359 358 358 358 357 355 355 354 355 355 355 356 356 357 360 361 360 360 358 356 354 354 355 355 354 353 350 350 353 353 351 348 348 350 354 356 354 352 350 349 350 350 350 350 351 352 352 352 352 351 350 349 350 350 349 348
356 357 356 356 357 358 359 359 360 359 360 361 358 358 360 360 360 360 358 359 360 360 360 360 359 358 358 359 359 358 357 357 358 358 357 356 355 355 355 355 356 356 357 360 362 362 359 358 357 355 354 355 356 354 352 351 351 353 354 351 347 347 349 352 355 354 351 349 349 350 349 350 352 352 353 354 353 353 352 351 350 349 349 349 349
355 356 356 355 358 361 360 360 361 360 360 360 358 357 359 360 360 360 360 360 360 360 360 359 359 358 358 358 359 358 358 358 359 359 358 358 357 357 357 357 358 358 358 359 362 363 361 359 359 358 356 357 357 355 352 351 351 353 355 352 348 348 350 350 353 354 351 350 350 350 347 346 348 350 352 354 354 354 354 352 351 349 348 349 349
354 356 356 356 359 360 360 359 359 360 360 360 359 358 357 358 359 359 360 360 360 360 360 360 360 359 358 358 358 357 358 358 358 358 358 358 358 358 358 357 358 358 358 359 361 361 362 361 359 360 360 359 358 356 354 352 350 351 355 353 349 350 351 350 351 352 351 351 351 351 346 341 341 343 344 347 351 353 353 354 353 350 348 349 349
355 355 356 357 358 359 359 358 357 359 360 360 360 359 357 356 358 358 359 359 359 359 359 359 359 359 358 359 358 357 358 358 358 358 358 358 358 358 358 358 358 358 359 359 360 361 362 361 359 359 358 358 359 357 355 355 353 350 351 350 348 350 353 352 350 350 351 350 350 350 346 344 343 341 338 337 339 343 347 349 352 352 350 348 348
355 354 355 356 357 358 359 358 357 358 359 360 360 360 358 357 357 357 357 357 357 357 358 358 357 357 357 357 357 358 358 359 359 359 358 358 358 358 359 360 360 359 359 358 358 359 361 360 357 357 356 355 357 357 356 357 356 355 355 352 348 349 352 354 353 350 351 350 349 349 348 348 348 345 341 336 331 332 335 337 343 349 352 351 349
354 353 354 355 356 356 357 357 357 356 357 358 359 359 359 357 356 356 355 355 356 355 356 357 357 357 357 357 357 356 357 359 360 360 359 358 358 359 358 359 360 360 358 357 356 356 356 355 355 355 353 352 353 354 356 358 358 359 358 352 350 349 349 353 355 352 351 351 349 348 349 350 349 347 345 340 332 330 330 329 330 337 345 351 352
354 353 353 353 354 354 355 356 356 355 355 354 354 356 357 356 356 355 353 353 353 352 352 354 355 356 358 358 357 356 356 358 359 358 356 356 357 357 358 359 361 361 360 358 355 353 353 353 355 354 352 353 353 351 353 357 357 358 356 353 352 350 346 349 355 353 351 350 348 346 347 349 349 348 346 341 335 332 330 328 329 331 336 342 347
355 355 355 354 354 354 354 355 355 354 354 353 352 353 353 353 354 356 355 354 354 353 353 353 354 355 356 356 356 357 357 357 357 357 356 356 356 356 356 357 359 361 362 360 358 356 353 353 355 357 357 357 354 351 353 355 355 355 356 354 353 351 348 347 352 353 351 350 350 348 345 346 349 349 346 340 336 333 330 329 331 333 334 335 337
357 358 357 356 356 355 354 355 354 352 354 354 352 351 349 348 350 353 356 357 357 358 359 357 355 355 354 353 353 355 355 356 358 358 358 357 356 356 355 354 355 357 359 359 359 356 353 353 356 358 359 355 350 351 352 353 353 354 355 354 352 352 351 349 350 354 352 350 351 350 347 347 349 349 345 338 333 330 329 330 331 332 334 334 335
360 359 359 358 358 357 355 354 353 353 353 353 350 349 348 348 347 350 353 354 355 356 357 357 358 358 356 355 355 353 353 356 357 358 358 357 354 354 353 353 352 353 354 355 356 355 353 354 357 359 359 355 350 350 351 351 353 355 355 355 354 353 352 350 349 353 352 350 351 350 347 347 348 348 344 337 332 328 327 328 330 330 332 334 335
361 361 360 358 357 357 356 356 356 353 351 351 350 349 349 349 348 349 352 355 355 354 355 356 357 358 359 359 359 357 356 358 359 360 362 360 355 351 351 351 351 350 350 351 351 351 351 352 354 356 358 357 353 351 352 353 355 355 354 355 355 354 353 351 350 352 352 349 350 349 346 345 346 346 343 337 332 329 326 326 328 329 330 331 332
359 360 358 357 358 359 359 359 357 351 349 350 350 350 350 350 349 349 352 355 357 355 356 357 357 358 359 360 360 360 360 360 361 362 363 361 358 356 354 355 355 353 353 352 351 351 352 354 354 352 350 353 354 353 354 355 354 352 351 352 354 353 352 352 352 352 350 349 348 347 345 345 344 344 343 337 331 327 324 324 326 327 328 328 329
355 357 356 357 359 359 358 358 355 349 347 349 349 349 349 349 348 349 352 355 356 355 356 357 357 358 359 359 360 360 360 361 361 360 359 358 358 358 357 357 356 355 354 355 356 355 354 354 355 352 349 350 352 354 356 356 353 350 348 349 352 352 351 352 352 352 350 348 346 345 345 344 343 342 342 339 334 329 325 323 324 325 326 327 327
352 354 355 356 359 358 357 358 355 350 348 349 348 347 348 348 347 349 352 354 354 354 355 355 354 354 355 357 358 357 358 359 359 356 355 354 355 355 356 356 356 356 355 354 355 356 354 352 352 352 352 351 350 352 354 354 352 349 348 349 350 350 351 352 352 350 349 347 344 342 343 342 342 341 341 339 338 335 330 326 323 323 323 324 325
352 353 354 355 356 356 355 355 353 349 346 346 346 345 346 346 346 348 351 352 352 353 353 353 352 352 353 354 354 353 354 354 354 353 352 352 352 353 354 355 355 356 356 355 355 354 353 352 350 350 353 353 352 350 349 350 350 347 346 349 350 350 351 352 352 349 347 345 342 341 341 340 340 341 340 339 338 337 335 332 328 325 323 322 322
353 353 354 353 352 351 350 350 349 345 342 342 342 342 343 343 343 345 348 349 349 350 350 350 350 349 350 350 349 348 348 348 347 347 347 346 348 350 352 353 354 355 355 355 354 352 350 350 349 349 350 350 349 346 342 341 343 342 343 348 349 347 347 348 349 348 347 345 342 340 341 339 338 338 339 339 338 335 334 334 332 331 329 326 323
348 349 349 348 346 346 344 343 343 340 338 337 337 337 336 335 336 338 340 341 342 343 343 344 345 346 346 346 346 344 342 340 339 339 339 339 341 344 347 349 351 352 353 354 354 352 349 348 347 347 346 344 344 344 341 338 337 337 341 346 348 347 346 346 346 346 346 344 340 340 341 339 336 336 335 336 338 337 334 332 332 332 332 330 327
Wind_Speed
8 7 7 6 5 5 5 6 6 6 6 6 6 5 5 5 5 5 5 4 6 6 5 6 7 8 7 8 9 9 9 9 9 8 8 8 7 8 9 9 8 8 7 7 6 6 6 6 6 6 6 6 6 7 7 7 8 8 8 9 9 9 10 10 11 11 11 11 11 11 11 11 11 12 12 13 13 14 14 15 16 17 17 18 19
7 6 6 5 4 4 5 5 6 5 5 5 5 4 4 5 5 5 5 5 6 6 5 7 8 8 7 8 9 9 9 9 8 8 8 7 6 7 8 8 7 7 6 6 5 5 5 5 5 5 5 5 5 6 6 7 7 8 8 9 9 10 10 11 12 13 13 14 13 13 13 13 14 14 15 15 16 16 16 17 18 18 19 20 20
6 5 5 4 4 4 5 5 5 5 4 5 4 4 4 5 6 5 5 5 6 6 6 7 8 8 8 8 8 9 8 7 8 8 8 7 5 5 5 7 7 6 6 5 5 5 4 4 4 4 4 4 4 5 5 6 7 8 9 10 11 11 12 12 13 13 14 14 14 14 15 15 15 16 16 17 18 18 19 20 20 20 21 21 21
5 5 4 4 4 4 4 4 5 4 4 4 4 4 4 5 6 5 5 5 6 6 6 7 8 7 8 8 8 8 7 7 7 7 7 6 4 4 4 4 5 6 5 4 4 4 4 3 3 2 2 2 3 4 6 7 8 10 11 12 13 13 13 13 13 13 13 13 14 14 14 15 15 16 16 17 18 19 20 21 22 22 22 21 21
4 4 3 3 4 4 4 4 4 4 4 4 4 4 5 6 5 5 5 5 7 6 5 8 8 6 7 8 7 7 7 6 7 7 5 5 4 4 4 3 3 4 5 4 3 3 2 2 1 0 1 2 3 5 6 8 9 10 12 12 13 13 13 13 13 12 12 12 13 13 13 14 15 15 16 16 17 18 19 20 21 22 22 22 22
3 3 2 3 4 4 4 5 4 4 4 4 4 4 5 6 6 5 5 6 7 6 6 8 7 7 6 6 7 6 5 6 6 5 4 3 3 3 3 3 2 2 2 3 3 2 1 0 1 1 2 3 4 6 7 8 9 10 11 12 13 13 14 14 13 13 12 12 13 13 13 14 15 15 15 16 16 17 17 18 20 21 22 22 22
2 2 2 2 3 4 4 4 4 3 4 4 4 5 6 6 6 5 5 6 6 6 6 6 6 7 6 5 6 4 4 6 4 3 4 3 2 2 3 2 2 2 1 2 4 4 3 3 3 3 4 5 6 6 7 8 8 10 11 11 12 13 14 14 13 13 13 13 13 14 14 15 15 15 15 15 16 17 17 17 19 21 21 21 21
2 1 1 2 3 4 4 4 4 3 4 4 4 5 6 6 7 6 5 4 4 6 6 5 6 7 6 6 6 4 4 5 3 3 5 3 2 3 2 2 2 2 2 2 3 5 6 5 4 4 4 4 5 5 5 6 7 9 9 10 12 13 14 13 12 13 13 14 14 15 15 15 16 16 15 15 15 16 16 17 19 20 19 19 18
2 1 1 2 3 4 5 4 4 3 3 4 4 5 6 6 7 6 5 3 3 6 5 4 5 6 7 7 5 3 4 5 4 4 4 2 3 3 2 2 2 3 5 4 3 4 6 7 6 5 5 4 4 4 5 5 7 7 8 9 11 12 12 12 12 12 13 14 15 15 16 16 16 16 15 14 14 16 16 16 18 19 18 17 15
2 2 2 2 3 4 4 4 4 4 3 3 4 6 6 6 6 6 6 4 4 5 5 4 4 5 7 8 5 2 3 5 3 2 1 3 4 1 0 2 2 5 5 3 3 2 4 6 8 6 6 6 5 5 5 6 6 7 8 9 10 11 11 11 12 12 13 14 15 16 17 18 17 16 15 13 13 15 15 15 17 19 17 15 13
3 3 2 2 3 4 4 4 4 4 4 4 5 6 7 8 7 6 5 4 4 4 4 3 3 4 5 6 6 2 2 4 2 1 1 2 3 1 0 2 1 3 3 0 3 3 1 3 6 5 6 8 7 6 6 7 8 8 9 9 10 10 10 11 11 12 13 14 15 17 18 18 18 17 14 12 13 14 14 14 17 18 16 13 10
3 3 2 2 2 3 4 4 4 4 4 5 5 5 7 7 7 6 5 3 3 3 3 3 3 4 3 4 4 3 3 2 0 1 1 2 3 2 1 1 1 2 1 2 3 5 3 1 5 5 5 8 9 9 9 9 8 9 9 9 9 9 9 10 11 12 13 14 15 16 17 16 15 15 13 12 13 14 13 13 16 17 14 10 9
2 2 2 2 2 3 4 4 4 4 5 5 5 5 5 5 5 5 4 4 3 4 4 3 2 3 2 3 3 3 3 0 1 1 0 2 3 1 2 1 0 1 2 2 1 5 5 3 3 5 5 6 8 9 11 10 9 9 8 7 7 8 9 10 11 12 13 14 15 15 15 14 14 13 12 11 12 13 12 13 15 15 11 9 9
2 2 2 2 2 2 3 4 4 4 4 4 4 4 4 5 5 4 4 4 4 5 5 3 1 4 2 1 3 3 2 1 1 1 1 1 1 1 1 4 2 3 5 3 3 5 6 5 5 6 6 7 7 7 9 9 8 8 7 6 7 8 9 9 11 12 13 15 14 13 13 15 15 13 11 11 12 12 12 12 14 14 10 8 9
2 2 2 2 2 2 3 4 4 3 3 3 3 3 3 4 5 5 5 2 3 5 5 4 4 3 1 0 1 2 3 1 1 1 1 1 1 1 0 4 3 4 6 7 6 5 6 7 6 6 8 9 9 8 8 8 7 7 6 6 8 9 9 9 11 12 13 14 12 12 14 16 16 14 12 12 11 11 11 11 13 13 9 8 9
3 2 2 2 2 2 2 3 3 3 3 2 2 2 2 3 4 5 6 5 3 4 4 4 5 4 1 1 1 0 1 1 0 0 2 1 1 1 2 4 4 2 5 8 7 7 6 6 6 6 7 9 9 10 10 9 8 7 7 8 10 10 8 9 11 11 13 13 11 12 15 17 18 16 14 12 11 11 11 10 12 11 8 8 9
3 3 2 2 2 2 2 2 3 2 2 1 1 1 1 2 3 4 4 6 5 4 3 4 5 5 4 2 1 1 2 4 3 2 4 4 2 1 1 4 5 2 4 7 6 6 5 5 8 6 4 7 8 8 11 10 8 8 7 8 9 8 8 10 11 11 12 13 13 14 16 17 18 18 16 14 11 11 10 10 11 10 7 8 9
4 3 3 2 2 2 2 2 2 2 1 1 1 1 0 2 3 3 4 5 6 5 3 3 4 3 2 2 1 2 3 5 4 1 3 5 5 5 1 3 6 4 4 6 5 5 4 5 8 6 4 7 7 7 9 9 8 8 8 8 8 8 9 11 12 10 11 13 14 14 15 16 17 18 16 14 11 11 10 9 10 10 7 7 9
4 4 3 2 2 1 1 1 1 1 1 1 1 0 1 2 3 3 4 4 4 5 5 4 3 2 2 2 1 2 3 3 4 3 2 2 6 8 5 4 7 5 4 7 6 5 5 5 7 7 4 5 6 7 8 7 6 7 8 8 8 9 11 11 12 11 11 13 14 14 14 15 15 16 15 13 12 11 10 8 9 9 7 7 9
4 4 4 2 2 1 1 1 1 1 1 1 0 1 2 2 2 2 2 3 3 4 5 5 4 2 3 4 3 2 3 3 3 4 4 3 4 7 7 6 7 6 5 8 8 6 6 5 7 7 4 4 5 6 7 6 6 6 7 9 9 10 11 11 11 11 12 13 14 14 15 15 15 15 14 13 12 11 10 8 8 8 7 7 9
4 4 4 3 3 2 1 1 1 1 1 1 0 1 1 1 1 1 2 2 2 3 3 4 5 4 3 3 5 4 4 4 3 4 4 3 3 6 6 6 6 5 5 7 7 7 7 6 6 5 5 5 5 6 6 6 6 6 7 9 10 10 10 11 11 11 12 14 14 15 16 15 15 15 15 14 13 11 10 7 7 7 7 7 8
5 5 4 4 4 3 2 2 1 1 1 1 1 1 0 0 0 1 2 2 2 2 3 3 4 5 4 2 4 5 4 4 5 5 5 4 4 6 7 6 6 5 4 6 7 6 6 6 6 5 5 6 6 6 6 6 6 7 7 8 8 9 9 10 11 12 14 15 16 16 16 16 16 16 16 15 13 12 10 7 6 6 6 6 7
4 4 5 5 4 4 3 2 2 2 2 2 2 2 1 1 1 0 1 2 2 3 4 4 3 4 5 3 5 6 4 5 5 4 6 6 5 7 8 7 7 7 4 5 6 5 5 5 5 5 6 6 5 6 7 5 6 7 7 7 8 9 10 11 12 14 15 16 17 17 17 18 18 18 17 15 13 11 9 7 5 5 6 5 7
4 4 5 5 5 4 3 2 2 2 2 2 2 2 2 1 1 1 2 1 2 3 3 5 4 5 6 5 6 6 4 5 5 4 5 6 5 7 8 7 7 7 5 5 6 5 4 5 4 5 6 6 5 7 7 5 5 6 5 7 9 10 11 13 14 16 17 17 18 18 18 18 17 17 15 13 12 10 9 7 4 4 5 5 6
5 5 5 5 5 4 3 3 2 2 2 2 2 2 2 2 2 2 3 2 3 3 4 5 5 5 6 6 6 7 5 5 6 6 6 5 5 7 7 7 8 7 5 5 6 5 4 4 4 4 6 6 6 7 7 5 5 5 4 6 10 12 13 15 16 18 18 18 18 17 17 17 15 14 13 12 10 8 8 7 3 3 4 4 5
5 5 5 5 4 4 3 3 3 3 3 3 3 3 2 3 3 3 3 3 3 4 5 6 5 5 6 6 7 7 6 6 6 6 6 6 6 6 6 7 9 8 5 4 5 6 4 4 4 4 5 6 6 6 6 5 4 6 5 5 9 13 16 17 18 18 18 18 17 16 16 15 14 13 12 10 9 8 8 7 3 3 4 4 4
4 4 4 5 5 4 4 4 3 3 4 4 4 4 3 3 3 4 4 4 4 5 6 6 6 6 6 7 8 8 7 7 7 6 6 6 6 6 6 5 6 7 6 5 5 4 4 5 4 3 5 6 5 5 5 5 4 7 8 7 9 13 16 17 17 17 17 16 15 15 15 14 14 14 12 9 8 7 8 7 3 3 4 3 4
4 5 5 5 5 5 5 5 4 4 5 4 5 4 3 4 4 4 6 6 5 5 6 7 7 7 7 7 8 8 8 7 8 8 7 6 6 6 6 6 5 5 5 5 5 4 4 5 2 1 5 6 5 5 5 4 6 7 8 9 9 11 15 16 16 16 15 14 13 13 13 13 13 14 13 10 8 7 7 6 3 3 4 3 3
6 6 6 5 6 5 6 5 5 5 5 5 5 5 4 5 5 5 6 6 6 6 7 7 8 8 8 7 7 8 8 8 9 9 7 6 7 7 6 6 5 5 5 4 5 6 6 6 2 0 3 6 5 6 4 4 7 8 8 8 8 9 13 14 14 15 13 11 12 12 12 12 13 14 13 12 10 8 7 5 3 4 4 3 3
6 6 6 6 6 6 6 6 6 5 5 5 5 5 5 6 6 6 7 7 6 7 7 7 8 8 8 8 8 8 8 8 9 9 7 6 7 8 7 6 6 6 7 5 5 7 8 8 5 2 3 5 6 6 5 4 7 9 8 7 7 9 11 11 12 13 11 10 10 10 11 12 12 13 13 13 13 11 6 2 3 4 4 4 4
7 7 7 7 7 7 7 7 7 6 6 6 6 6 6 6 7 7 6 5 6 7 7 7 8 8 8 8 8 9 9 9 9 9 8 7 8 8 7 7 7 8 8 7 6 7 9 9 8 6 5 5 6 7 7 5 7 9 8 6 7 8 7 7 10 12 9 9 10 10 10 11 12 13 13 12 14 12 6 3 5 5 5 5 4
8 8 8 8 7 7 7 7 7 7 6 6 6 6 6 7 7 7 5 4 6 7 7 7 8 7 7 8 8 9 9 9 10 10 9 8 9 9 8 8 9 9 9 8 8 8 9 9 9 9 7 6 6 6 7 7 7 8 8 6 8 8 5 4 7 10 9 9 10 10 10 11 11 11 12 11 12 11 5 5 6 5 5 5 5
9 9 9 9 8 8 7 7 7 6 6 6 6 6 7 7 7 7 6 5 6 7 7 7 8 8 7 8 8 9 9 10 10 10 10 9 9 9 9 9 9 9 8 8 9 9 9 8 8 9 7 7 6 5 6 8 7 7 8 7 7 7 6 4 4 6 9 9 10 10 10 10 10 9 10 10 9 8 4 3 6 5 5 6 6
10 9 9 9 8 8 8 7 7 7 6 7 7 8 8 8 8 8 7 6 6 7 7 7 8 8 8 8 9 9 9 10 10 10 10 10 10 10 10 10 10 9 8 8 9 9 9 9 8 9 8 7 7 6 6 8 7 7 7 8 7 7 7 5 2 4 9 10 10 10 10 9 9 8 8 8 7 6 3 1 5 6 5 5 6
10 10 10 9 8 8 7 7 7 7 7 7 8 8 8 8 8 8 7 7 7 7 7 7 7 8 8 8 9 9 9 9 9 11 11 11 11 10 10 10 10 10 9 8 8 9 11 10 9 10 9 7 7 7 7 7 7 6 6 7 8 7 7 6 2 3 9 11 10 10 9 9 9 9 8 8 7 6 4 2 3 6 6 5 5
10 10 9 9 8 8 8 7 8 8 8 8 8 8 8 8 8 8 8 8 8 8 8 8 8 8 8 9 9 9 9 10 10 11 11 11 10 11 11 10 10 11 10 9 9 9 11 11 10 10 9 8 9 8 7 7 7 6 5 6 7 6 7 6 2 2 7 9 9 10 9 9 9 9 9 9 9 9 7 5 2 3 6 5 5
10 9 9 10 9 9 9 8 8 8 8 7 8 8 8 8 8 9 9 8 9 9 8 9 8 9 9 10 10 10 10 10 11 11 11 11 11 12 12 11 11 11 10 10 10 10 11 12 11 10 10 10 10 8 7 8 8 6 5 5 5 5 6 6 3 1 2 4 6 9 10 10 11 11 11 11 11 12 12 10 7 2 4 6 5
10 9 9 10 9 9 9 9 9 8 8 8 7 8 8 8 8 9 9 9 9 9 9 9 9 9 10 10 10 10 10 11 11 11 11 11 12 12 12 12 12 12 12 12 11 11 12 12 12 11 11 11 10 8 7 7 7 7 6 5 4 3 4 6 5 2 0 1 1 5 7 8 10 11 11 12 12 13 13 13 12 9 3 3 5
10 10 10 10 9 9 9 9 9 9 8 8 8 8 9 9 9 10 10 10 10 10 10 10 10 10 11 11 11 11 11 12 11 11 11 11 12 12 11 11 12 12 13 13 13 13 12 13 12 11 12 11 9 9 8 6 7 7 5 5 5 3 3 3 4 4 3 2 2 0 3 4 6 10 11 12 13 13 12 12 12 11 9 4 1
11 11 11 10 10 10 10 10 10 10 10 10 9 9 9 10 10 10 10 11 10 10 11 11 11 11 11 12 12 11 11 11 11 11 11 11 12 12 11 12 12 12 13 13 14 14 13 13 11 11 13 13 11 12 11 7 7 6 4 5 5 4 4 3 3 3 4 4 2 1 1 1 3 7 10 11 13 13 12 11 11 10 9 7 4
10 10 10 11 10 10 10 10 10 11 11 9 9 9 9 9 9 10 11 12 11 11 13 13 12 11 11 12 12 12 11 11 12 14 14 14 14 14 13 12 11 10 11 12 14 14 14 14 12 11 13 13 12 16 15 10 7 6 4 4 4 4 5 4 2 2 4 5 3 2 2 2 2 4 7 9 11 12 11 11 11 10 8 7 5
10 9 10 10 10 10 10 9 10 11 9 6 7 9 10 9 9 9 11 12 12 12 14 15 14 13 12 13 13 13 13 14 15 16 16 15 16 16 16 14 12 12 11 12 13 14 13 13 13 10 9 10 15 20 17 10 7 6 4 4 4 4 5 5 4 2 2 4 3 2 3 3 2 3 5 8 9 10 10 11 10 9 9 8 7
9 9 10 10 10 10 9 9 10 9 6 4 6 8 9 8 8 7 8 10 11 11 12 13 13 13 14 14 14 14 14 14 13 13 14 15 17 18 19 18 17 15 15 14 14 13 13 13 14 10 7 10 18 21 18 13 9 6 5 5 4 4 4 5 5 3 2 2 3 2 2 2 1 2 5 7 8 8 9 9 8 8 8 9 8
9 9 9 9 9 9 8 9 9 5 4 6 8 8 8 8 8 8 8 9 10 11 11 12 12 13 13 14 15 15 14 12 11 12 14 17 19 19 20 20 19 19 19 18 16 15 15 14 14 12 9 12 18 19 18 16 10 4 4 6 5 5 5 5 6 4 2 1 3 4 2 1 1 2 4 6 7 8 8 7 7 7 8 8 8
7 7 7 7 8 8 7 8 6 3 4 8 8 8 9 9 9 9 9 9 10 12 12 11 11 12 12 12 13 14 13 12 12 12 12 14 18 19 19 20 21 21 21 21 20 19 18 17 18 17 13 12 17 19 15 12 10 7 8 7 5 5 5 6 7 4 2 2 4 4 3 2 3 3 4 5 6 7 7 7 7 7 8 8 9
6 6 7 8 7 6 5 4 3 3 5 8 6 7 8 8 9 10 8 8 10 11 11 11 12 11 11 11 11 12 12 11 11 11 10 11 15 16 17 17 18 19 20 21 21 19 18 17 18 20 19 16 17 18 13 8 8 10 11 9 6 6 6 6 5 4 3 3 3 4 4 3 3 3 3 4 6 7 6 6 6 6 7 7 8
8 6 6 7 6 5 4 4 3 2 5 6 5 6 7 8 9 8 7 8 9 10 10 10 10 10 10 10 10 11 12 11 11 13 14 14 14 15 16 17 17 18 18 18 18 18 19 18 16 18 20 17 15 15 13 11 9 8 10 11 8 6 6 6 5 4 5 4 2 4 5 3 3 3 3 4 6 7 7 5 5 5 5 6 6
7 6 6 6 6 5 4 4 3 3 6 7 6 8 9 10 10 9 8 9 10 10 11 11 12 12 11 10 11 12 12 11 12 15 17 16 16 16 18 19 19 19 19 19 19 20 21 20 19 21 20 16 14 13 12 12 9 7 9 11 8 7 7 7 6 6 7 5 2 3 5 4 4 4 3 4 4 4 5 5 5 5 5 5 5
6 6 5 5 4 3 2 2 2 3 5 6 7 8 10 11 11 9 8 10 11 11 12 12 12 13 12 12 13 14 14 14 16 18 18 19 19 19 20 21 21 21 19 18 19 21 20 19 19 21 21 20 18 13 11 12 9 7 9 10 8 8 7 7 8 7 7 5 2 2 4 4 4 4 4 4 3 2 3 4 4 4 4 5 4
5 4 4 4 3 3 3 3 3 1 2 4 6 7 8 9 8 7 7 10 11 11 11 11 12 13 13 13 15 15 15 17 19 20 21 21 21 21 22 22 23 24 22 19 19 22 23 21 21 21 21 20 16 9 7 9 8 8 9 9 9 9 9 10 8 5 4 4 2 0 3 3 2 4 5 5 4 4 3 4 2 2 3 4 4
6 4 3 4 4 4 4 4 3 1 2 4 4 4 6 6 5 4 4 5 6 7 8 9 9 10 10 10 12 13 14 15 16 16 17 18 17 18 20 22 22 23 22 18 17 22 23 21 20 20 19 17 14 9 7 8 9 9 10 10 10 10 10 10 7 3 3 3 4 2 2 3 2 3 4 5 5 5 5 4 3 2 0 1 2
Wind_Direction
119 112 104 96 90 90 93 95 96 97 100 98 90 85 84 81 75 77 76 75 87 88 90 99 95 87 86 90 92 89 87 87 87 90 91 95 95 81 78 77 71 70 65 60 56 47 41 37 33 29 21 16 11 6 1 357 357 357 358 357 355 354 350 346 343 340 338 335 334 331 328 325 321 317 314 310 307 303 300 298 297 296 296 295 293
113 104 97 92 90 89 91 97 96 94 96 91 83 74 73 75 67 69 71 69 82 88 85 89 90 87 84 86 92 92 89 89 91 94 94 96 100 83 71 73 71 67 65 62 59 56 52 50 46 41 31 23 15 6 1 356 354 351 350 348 346 344 340 337 335 331 330 328 327 325 322 320 316 313 310 308 306 304 302 301 299 298 297 295 293
101 94 92 88 90 93 93 97 96 92 86 80 69 58 60 60 55 55 63 74 86 88 88 90 91 91 88 88 89 90 90 94 96 95 93 91 101 99 74 67 67 64 65 64 64 67 69 68 62 52 37 23 7 356 350 345 342 340 339 338 337 335 332 329 326 324 322 320 320 319 317 315 314 313 312 310 309 308 307 305 303 301 299 297 293
85 80 85 84 85 91 95 95 94 89 74 64 54 48 52 54 52 57 65 85 94 92 97 94 90 90 91 89 87 89 90 90 93 91 91 91 97 108 98 70 59 59 63 64 70 73 77 85 81 65 32 4 349 341 337 335 335 334 335 335 334 333 332 330 327 324 320 318 318 317 317 315 315 315 315 315 313 312 310 308 305 302 300 298 293
77 71 78 87 87 88 94 95 87 82 68 51 47 47 47 52 55 67 76 89 95 96 100 94 89 87 87 90 89 91 95 95 94 90 90 98 97 100 106 99 69 49 48 54 66 80 95 101 100 85 348 334 330 330 329 330 331 332 334 335 337 337 338 337 334 330 326 325 325 322 321 318 317 317 317 318 317 316 314 312 309 305 303 300 296
77 65 72 93 98 93 91 92 82 77 69 48 45 47 42 44 48 67 83 86 88 83 81 87 88 85 80 85 91 90 97 94 89 92 93 87 86 89 94 99 101 63 31 28 28 35 61 291 274 286 300 308 314 320 323 327 331 333 337 338 341 344 343 342 338 336 334 332 331 327 324 321 319 319 318 319 319 319 318 317 317 313 309 305 300
82 62 72 97 103 98 87 84 78 73 69 49 41 42 36 38 40 54 79 87 94 87 76 78 78 84 82 79 86 87 93 90 87 104 99 88 80 77 76 72 75 70 35 8 357 351 350 329 312 310 307 309 312 317 322 328 334 337 341 343 346 348 346 342 339 337 335 332 330 326 322 320 319 318 318 319 320 321 320 322 323 320 316 311 306
91 70 80 101 101 97 87 81 76 70 65 51 43 38 34 39 35 39 62 76 102 98 89 86 84 90 94 90 87 81 88 94 98 90 80 79 78 63 63 68 52 42 51 59 23 350 354 355 348 342 334 331 326 325 329 331 337 340 342 345 348 349 345 340 339 337 334 330 326 322 318 316 315 313 314 316 318 319 319 323 327 325 321 315 311
108 94 88 101 101 95 89 83 76 72 64 55 47 37 32 37 34 32 43 41 76 92 95 98 97 99 97 96 92 84 88 79 56 63 75 73 63 34 18 63 60 44 31 30 44 2 347 352 357 2 355 350 343 334 334 334 336 340 341 345 347 347 343 338 338 336 332 328 323 319 315 312 309 307 307 310 313 315 316 324 330 330 325 317 312
119 109 102 101 100 92 85 79 75 71 65 62 49 34 25 27 32 29 27 22 35 63 69 65 79 93 97 102 102 94 95 88 64 51 81 93 88 98 309 46 36 65 46 354 21 2 339 348 346 356 350 340 340 331 329 330 331 334 335 340 341 339 338 338 339 337 332 327 321 317 313 309 305 302 303 305 307 310 315 327 334 333 328 322 316
120 111 109 112 108 97 85 77 76 70 60 63 53 34 21 17 24 24 21 28 35 45 49 39 47 64 80 103 112 115 85 92 118 106 54 82 87 253 195 77 19 82 110 336 3 321 345 358 319 323 331 320 324 325 321 321 319 320 324 328 332 333 336 340 341 338 332 327 323 322 320 315 310 305 303 304 302 305 316 330 337 335 330 328 328
122 115 110 111 105 95 85 75 74 73 58 54 51 36 22 16 16 12 15 38 53 60 45 18 50 66 76 108 119 132 102 74 94 102 102 96 82 307 310 97 34 53 72 54 14 312 306 321 287 301 318 310 318 325 324 323 319 318 319 321 326 331 336 340 340 337 333 330 331 334 334 331 327 318 310 304 298 302 319 335 339 337 333 335 339
126 124 118 114 107 92 80 70 69 71 58 49 48 38 25 20 10 356 13 35 40 62 55 33 79 96 113 136 136 136 113 135 244 114 119 117 133 216 316 310 267 44 22 72 289 288 293 284 291 310 312 310 317 323 325 329 331 326 323 321 324 330 335 337 336 336 336 335 338 342 345 347 344 333 320 306 298 305 323 337 340 338 337 341 348
136 135 135 132 117 92 80 73 68 65 60 54 52 45 30 19 9 0 14 38 45 50 47 15 50 83 75 147 146 138 126 280 300 44 338 8 153 161 315 305 329 13 351 328 275 292 311 314 321 322 318 315 314 318 322 326 326 323 329 329 326 330 332 334 335 336 336 337 342 349 355 357 352 342 328 311 303 313 327 339 342 340 340 348 355
148 142 143 139 116 94 85 79 71 62 61 61 52 50 38 18 16 11 351 2 76 63 34 2 14 62 99 37 57 142 147 223 304 1 311 325 309 178 125 310 338 16 336 315 310 328 334 327 328 329 326 322 319 321 323 324 321 327 344 337 331 335 332 333 336 337 339 341 348 358 2 3 354 343 331 316 311 319 330 340 343 341 342 350 357
157 149 145 134 116 101 87 82 77 66 65 72 67 56 45 24 28 24 348 340 42 63 45 20 17 20 358 5 343 291 106 331 74 33 309 310 310 12 57 311 321 34 317 303 318 335 337 334 330 331 330 324 326 328 323 323 325 332 342 335 335 339 332 335 338 338 345 348 349 353 358 0 356 347 335 325 323 326 332 341 344 344 345 351 358
163 158 147 135 126 106 92 94 85 75 80 88 76 57 46 35 34 32 7 353 357 12 36 38 35 29 6 0 339 353 20 340 354 22 310 307 311 331 26 297 305 8 303 298 317 327 335 342 327 325 325 313 324 336 326 322 327 328 327 328 335 337 331 339 341 337 342 345 342 342 347 354 358 355 346 338 335 332 334 344 346 345 351 359 3
174 170 155 145 141 111 97 102 91 85 91 77 77 72 83 59 35 17 20 14 352 341 0 38 45 39 20 46 19 333 348 332 334 14 289 302 314 304 272 300 311 311 289 302 316 318 334 340 316 315 328 316 325 345 330 320 325 325 323 328 333 333 334 341 343 335 331 333 334 334 339 348 355 357 354 350 347 338 336 346 348 347 0 9 12
180 176 173 163 152 121 96 99 100 105 102 75 72 30 31 61 42 18 17 17 1 341 339 3 24 16 6 34 26 328 335 327 326 338 297 312 331 313 303 321 313 307 315 318 320 324 332 329 314 316 343 336 332 341 332 322 324 326 329 334 333 332 337 341 341 334 326 325 325 329 337 345 351 353 353 355 355 343 338 349 350 350 5 16 21
186 186 191 190 190 163 114 108 96 114 138 158 126 26 27 44 36 26 17 4 5 356 343 341 342 13 19 347 334 334 313 304 325 326 311 333 340 306 299 313 309 313 328 320 324 333 328 327 322 322 344 350 335 333 328 323 328 327 324 331 336 336 339 341 338 333 328 327 327 332 338 341 344 347 345 347 352 344 338 351 354 353 8 19 27
191 197 202 204 208 207 198 183 179 179 197 202 128 34 17 19 4 4 5 357 355 351 342 333 327 345 14 342 331 320 299 298 292 287 302 330 314 291 296 310 309 319 329 322 330 334 330 331 321 321 341 340 330 327 323 327 337 330 319 329 338 339 340 342 342 344 342 340 337 335 335 335 337 340 339 338 343 340 336 349 356 357 10 20 31
192 196 205 208 206 210 217 216 220 215 220 240 248 261 292 267 267 344 348 345 334 319 311 311 317 321 323 325 309 298 300 306 294 303 319 308 292 301 309 318 321 323 329 331 330 327 331 327 315 331 347 334 330 331 326 332 337 325 323 334 339 340 345 348 348 351 347 342 338 333 330 330 332 336 336 334 336 337 335 346 358 3 14 22 32
201 197 204 206 200 211 223 225 232 231 238 250 251 257 263 247 218 275 307 316 310 306 301 293 290 292 291 280 274 284 300 299 299 323 316 309 317 311 310 323 321 312 325 334 319 316 327 319 319 347 346 333 342 341 330 331 332 325 332 344 345 344 347 349 348 346 344 340 337 334 331 330 332 334 335 335 337 339 337 343 1 10 18 27 34
215 207 210 204 195 207 224 234 238 238 248 257 265 284 295 294 285 272 275 280 289 295 291 288 286 279 280 280 280 287 293 295 306 318 303 314 322 302 308 326 312 304 323 328 312 310 318 320 330 350 347 342 353 346 333 336 343 338 345 345 346 351 347 344 344 341 341 340 339 339 337 336 337 337 339 342 346 347 341 341 6 23 22 33 41
219 215 216 210 203 213 223 228 237 239 250 261 271 288 296 291 291 283 279 275 280 285 281 282 287 282 284 288 288 289 289 290 299 299 295 301 294 292 313 319 306 305 319 323 315 304 304 324 332 344 347 342 350 350 338 345 358 349 352 336 333 344 346 343 341 339 339 341 342 345 346 346 347 345 347 352 356 355 345 341 9 40 27 37 50
216 218 220 217 216 223 227 231 241 243 246 253 256 266 273 279 285 283 281 284 286 283 277 278 280 279 283 288 289 290 291 287 284 283 288 292 293 302 316 309 304 306 305 304 305 300 312 327 321 342 351 336 341 348 337 343 352 341 349 339 325 333 342 341 338 338 341 343 347 353 357 357 356 354 356 1 5 358 345 345 13 56 40 38 56
210 213 216 218 220 222 229 236 241 247 250 250 251 253 253 259 269 275 277 276 277 279 279 281 282 281 282 285 288 289 289 289 286 284 287 291 299 309 311 306 304 308 308 304 297 295 311 313 311 341 345 331 330 335 337 340 330 334 346 344 330 329 333 337 338 341 345 347 353 1 4 5 3 2 5 7 6 353 344 352 22 74 54 42 62
212 214 212 212 216 220 230 234 234 245 249 246 249 248 247 255 257 260 268 269 268 273 278 280 282 283 282 281 284 287 289 292 292 290 289 293 300 302 299 300 305 310 312 311 309 301 299 306 317 342 324 323 318 317 333 328 315 331 339 336 337 328 325 334 344 347 348 350 359 6 7 8 6 4 6 3 355 340 339 356 36 85 69 59 74
219 218 213 210 214 218 231 236 233 242 245 240 243 242 242 254 255 254 265 269 268 268 272 277 278 280 282 282 283 287 290 291 288 288 288 286 288 288 289 296 302 305 306 307 309 303 302 308 319 190 303 310 301 299 314 306 311 333 334 326 337 330 324 338 350 350 350 354 2 9 9 10 7 1 1 358 350 337 331 356 62 94 84 83 89
216 217 212 211 216 219 228 237 237 241 244 238 239 240 244 252 257 259 264 265 267 269 270 273 274 277 282 285 287 289 291 290 286 286 284 274 274 278 283 288 287 286 294 297 298 303 306 305 308 295 285 300 300 304 316 296 300 327 333 323 334 334 327 337 349 349 350 354 2 11 11 10 9 3 0 358 353 347 345 30 99 104 97 98 104
209 213 216 217 217 217 222 231 235 236 236 236 238 239 246 254 257 258 255 250 258 267 269 271 273 275 280 285 287 287 289 291 288 286 281 272 271 275 279 283 281 277 281 283 286 296 299 301 309 306 293 302 306 312 322 306 299 324 332 320 331 342 327 320 339 348 351 351 357 6 7 7 7 3 2 1 356 356 12 105 121 113 108 107 112
210 210 215 219 220 220 225 228 231 233 232 235 240 239 243 252 257 261 259 252 259 265 268 271 274 276 278 282 283 285 288 289 287 284 278 272 271 275 278 278 276 274 270 271 277 286 293 299 305 302 300 309 305 307 316 311 312 328 330 318 325 338 331 310 335 347 348 350 354 358 1 0 358 356 358 1 359 2 28 122 132 121 117 112 113
212 211 213 217 218 222 228 228 230 232 230 233 240 240 243 247 249 254 254 251 258 263 266 270 274 277 276 276 278 282 284 284 284 282 279 276 273 272 275 275 275 276 268 267 276 286 292 295 294 294 299 303 299 303 309 309 318 326 326 324 321 326 333 331 345 349 346 350 354 355 359 358 354 351 352 356 359 3 20 134 148 139 124 114 114
211 213 215 215 216 218 221 221 223 226 224 229 238 240 242 244 246 251 248 243 248 256 260 263 268 272 269 269 273 278 279 278 279 282 281 280 278 277 278 278 279 279 273 266 272 283 288 289 288 286 284 285 292 302 306 306 314 318 323 328 324 327 333 331 0 10 353 354 358 0 4 3 1 359 355 354 353 354 358 179 175 165 143 119 118
211 213 216 216 212 212 217 217 216 222 223 228 235 238 240 243 247 253 254 249 250 254 257 259 264 268 268 268 272 276 280 282 284 286 287 286 285 285 284 283 283 281 277 267 263 274 284 286 285 283 279 277 285 295 300 299 300 304 317 325 324 332 333 325 1 38 3 1 8 14 17 18 18 17 11 7 2 356 346 295 211 184 167 139 129
212 209 211 213 208 206 216 220 219 224 227 229 233 235 236 240 244 248 251 250 251 254 257 261 264 267 269 272 275 279 282 285 285 285 287 287 286 285 284 284 282 280 279 270 260 266 277 280 279 278 277 278 280 287 295 297 295 291 304 319 321 328 330 322 327 32 360 3 14 19 25 31 34 34 31 28 28 27 21 6 321 203 185 166 148
217 210 206 208 207 207 216 223 225 229 230 229 232 234 237 239 240 241 242 243 247 251 254 258 261 263 266 268 271 275 276 278 280 282 286 287 286 285 285 284 282 280 279 273 267 264 266 272 276 273 269 270 273 280 287 293 296 291 294 309 312 319 327 324 327 348 355 16 25 24 31 40 41 43 44 42 40 40 41 39 34 41 193 190 179
219 216 211 208 208 211 217 223 227 229 232 234 234 237 242 241 238 240 242 242 247 251 254 256 256 257 259 262 264 268 270 273 277 281 285 287 286 286 286 286 284 281 278 275 269 261 258 263 268 267 267 265 265 273 278 283 293 297 303 307 300 301 319 327 333 342 63 142 30 28 34 37 35 36 43 48 47 44 43 44 43 45 59 198 206
218 220 218 213 212 215 218 223 228 229 233 238 239 242 246 245 241 241 243 245 247 249 253 256 259 261 260 262 262 261 262 266 271 276 282 286 288 288 288 287 284 282 280 278 273 267 263 266 267 272 280 278 274 277 273 265 275 280 289 303 307 306 309 322 327 332 345 291 238 114 31 22 31 30 32 42 46 44 42 42 42 44 47 53 202
217 221 221 218 218 221 222 225 229 230 231 237 241 243 246 249 252 252 252 255 258 260 260 258 258 262 264 265 266 265 263 264 264 270 278 283 285 288 289 289 287 285 284 287 289 289 286 283 285 298 301 294 288 287 279 263 260 258 264 292 303 302 296 295 303 325 338 311 254 149 26 11 48 35 31 38 39 36 37 40 39 39 42 46 49
220 223 224 224 223 225 228 228 229 233 235 237 238 239 242 250 260 265 267 272 277 277 278 274 267 263 263 264 268 268 265 263 263 268 274 278 280 283 286 288 286 284 283 285 288 290 290 287 287 289 287 281 277 277 270 259 259 258 259 280 287 290 294 289 268 295 325 314 305 342 334 320 10 26 35 42 37 32 32 35 35 32 31 33 34
223 221 222 227 228 229 233 233 233 239 239 225 222 236 248 256 261 261 263 269 270 267 273 277 273 269 267 268 269 265 263 267 269 272 275 275 274 274 275 276 275 274 274 271 269 270 274 277 273 267 265 269 273 272 264 255 256 259 254 262 275 290 296 287 261 241 300 314 315 321 321 330 350 28 47 47 43 38 36 34 31 26 25 25 23
221 220 221 224 226 230 234 235 237 238 226 204 226 248 260 267 269 266 267 270 267 262 267 270 271 274 274 274 274 269 266 268 269 271 276 276 274 274 274 276 275 272 269 268 269 270 266 266 269 264 252 266 278 281 280 274 261 250 259 271 278 283 283 281 268 236 228 303 299 274 280 306 344 63 60 57 56 52 47 41 35 30 29 29 30
219 217 217 214 219 228 232 235 238 226 198 220 245 257 264 269 273 277 280 280 276 274 274 273 274 277 276 275 276 275 276 278 277 275 275 277 281 281 279 278 277 275 272 271 273 276 274 274 276 268 251 255 267 276 285 290 290 276 263 267 270 270 268 274 275 255 202 237 274 263 247 203 164 106 82 76 71 65 60 54 44 40 40 36 38
213 213 216 215 221 230 233 236 234 198 209 235 249 257 265 272 276 279 284 285 283 281 279 276 276 275 274 276 277 277 279 284 284 276 268 273 285 291 288 281 277 274 273 271 272 274 277 280 281 279 272 258 256 261 273 294 309 299 273 261 257 263 268 271 272 266 211 223 266 273 262 217 196 160 111 98 90 81 75 65 50 44 46 42 41
209 226 236 232 224 221 225 224 188 166 227 245 255 265 271 276 278 281 286 287 286 285 282 279 277 275 274 274 274 277 279 282 281 275 268 276 287 292 289 282 273 270 269 269 271 272 272 273 277 285 289 280 263 259 260 264 275 282 284 284 274 268 273 268 260 249 230 232 266 283 272 241 217 189 134 124 115 101 87 74 60 50 49 48 47
202 215 236 235 217 201 205 204 170 187 253 260 265 275 283 286 288 294 294 287 287 287 284 281 281 283 282 278 278 278 278 278 274 270 272 278 283 284 282 277 269 266 266 263 262 262 264 267 271 278 287 290 276 260 249 243 246 260 278 284 279 277 272 252 237 234 227 219 252 282 269 242 230 220 175 158 139 116 101 86 73 63 55 52 51
198 197 217 228 220 205 202 201 185 213 252 263 274 285 291 293 296 301 294 284 286 286 284 284 285 286 286 285 282 279 279 280 275 271 273 277 280 281 278 275 271 268 265 259 252 254 259 264 266 267 269 271 270 261 252 248 241 243 266 272 267 258 249 234 231 233 220 194 175 284 272 244 243 242 193 175 175 142 124 103 79 69 64 59 56
188 191 201 208 210 195 183 181 181 212 246 273 293 299 300 300 303 306 295 285 285 285 287 288 286 285 287 289 287 287 289 289 282 279 279 278 280 279 276 274 272 268 265 256 248 250 253 251 254 260 258 256 259 265 270 266 250 241 261 270 265 257 247 235 232 228 218 200 159 305 276 248 246 246 203 186 221 216 154 129 87 45 41 50 55
167 178 178 158 138 121 109 101 105 135 284 314 323 321 318 314 312 311 298 288 286 286 290 291 287 286 289 291 291 292 295 292 286 282 282 280 280 278 276 275 271 267 265 258 251 254 257 255 256 259 257 254 253 251 262 268 255 236 244 260 272 273 265 257 251 230 210 208 161 146 259 236 228 242 227 212 221 217 174 146 129 30 20 35 39
133 141 145 123 111 101 92 94 106 105 341 344 353 359 0 359 2 6 344 318 310 307 307 305 300 297 299 300 301 301 301 300 297 294 292 290 286 282 281 280 277 274 273 269 261 259 260 261 264 263 256 253 251 243 243 256 255 242 239 255 276 282 278 274 272 262 231 197 130 111 249 234 207 227 243 248 229 191 160 147 154 160 146 54 34